Regional Weather Roundup
Issued by NWS

Home | Current Version | Previous Version | Text Only | Print | Product List | Glossary Off
Versions: 1 2 3 4 5 6 7 8 9 10 11 12 13 14 15 16 17 18 19 20 21 22 23 24 25 26 27 28 29 30 31 32 33 34 35 36 37 38 39 40 41 42 43 44 45 46 47 48 49 50

000
ASUS43 KLMK 281302
RWRKY
KENTUCKY REGIONAL WEATHER ROUNDUP
NATIONAL WEATHER SERVICE LOUISVILLE KY
900 AM EDT MON JUL 28 2014

NOTE "FAIR" INDICATES FEW OR NO CLOUDS BELOW 12,000 FEET
WITH NO SIGNIFICANT WEATHER AND/OR OBSTRUCTIONS TO VISIBILITY.

KYZ001>023-026-027-061>063-070>075-281400-
WESTERN AND SOUTH CENTRAL KENTUCKY

CITY           SKY/WX    TMP DP  RH WIND       PRES   REMARKS
PADUCAH        SUNNY     72  61  68 NW7       30.04R
HENDERSON      SUNNY     66  61  82 NW9       30.01R
OWENSBORO      SUNNY     68  61  78 NW10      30.00R
HOPKINSVILLE   SUNNY     71  60  69 NW10      30.02R
BOWLING GREEN  SUNNY     69  59  70 NW10G17   29.99R
GLASGOW        SUNNY     68  59  74 W7        29.98S
$$

KYZ024-025-028>034-038-045-046-053-281400-
NORTH CENTRAL KENTUCKY

CITY           SKY/WX    TMP DP  RH WIND       PRES   REMARKS
LOUISVILLE/SDF PTSUNNY   69  60  73 NW14      29.96R
LOUISVILLE/LOU CLOUDY    68  60  75 NW10      29.96R
FORT KNOX      SUNNY     67  62  83 W9        29.96R
$$

KYZ035>037-039>044-047>052-055>060-089>105-281400-
NORTHEAST KENTUCKY

CITY           SKY/WX    TMP DP  RH WIND       PRES   REMARKS
LEXINGTON      MOSUNNY   68  60  75 NW10G18   29.94R
COVINGTON      PTSUNNY   65  60  84 W8        29.92R
FRANKFORT      MOSUNNY   67  60  78 VRB6      29.94R
$$

KYZ054-064>069-076>088-106>120-281400-
SOUTHEAST KENTUCKY

CITY           SKY/WX    TMP DP  RH WIND       PRES   REMARKS
JACKSON        SUNNY     66  60  81 VRB6      29.93R
LONDON         SUNNY     69  59  70 W10       29.96R
SOMERSET       SUNNY     68  63  83 NW9       29.97S
MIDDLESBORO    PTSUNNY   70  63  78 NW3       29.96R
MONTICELLO     SUNNY     71  63  76 W8        29.99R
$$



USA.gov is the U.S. government's official web portal to all federal, state and local government web resources and services.